Change the Weather History Date:

Friday, August 30, 2013

  Actual Average Record
Temperature  
Mean Temperature 74 °F -  
Max Temperature 90 °F - - ()
Min Temperature 59 °F - - ()
Cooling Degree Days 9    
Growing Degree Days 24 (Base 50)    
Moisture  
Dew Point 53 °F    
Average Humidity 59    
Maximum Humidity 82    
Minimum Humidity 22    
Precipitation  
Precipitation 0.00 in - - ()
Sea Level Pressure  
Sea Level Pressure 30.27 in    
Wind  
Wind Speed 5 mph (South)    
Max Wind Speed 15 mph    
Max Gust Speed 16 mph    
Visibility 10 miles    
Events      
T = Trace of Precipitation, MM = Missing Value Source: NWS Daily Summary

Daily Weather History Graph

Daily Weather History Graph

Search for Another Location

Airport or City:

Trip Planner

Search our weather history database for the weather conditions in past years. The results will help you decide how hot, cold, wet, or windy it might be!

Date:

Astronomy

Aug. 30, 2013 Rise Set
Actual Time 6:38 AM MDT 7:36 PM MDT
Civil Twilight 6:12 AM MDT 8:02 PM MDT
Nautical Twilight 5:41 AM MDT 8:32 PM MDT
Astronomical Twilight 5:09 AM MDT 9:04 PM MDT
Moon 1:26 AM MDT (8/30) 3:47 PM MDT (8/30)
Length of Visible Light 13h 49m
Length of Day
12h 57m
Waning Crescent, 28% of the Moon is Illuminated
Aug 30
Waning Crescent
Sep 5
New
Sep 12
First Quarter
Sep 19
Full
Sep 26
Last Quarter

Hourly Weather History & Observations

Time (MDT) Temp. Heat Index Dew Point Humidity Pressure Visibility Wind Dir Wind Speed Gust Speed Precip Events Conditions
12:15 AM 68.9 °F - 55.6 °F 62% 30.33 in 10.0 mi SSE 4.6 mph - N/A   Clear
12:35 AM 68.7 °F - 55.6 °F 63% 30.33 in 10.0 mi South 4.6 mph - N/A   Clear
12:55 AM 68.4 °F - 55.9 °F 64% 30.33 in 10.0 mi SSE 5.8 mph - N/A   Clear
1:15 AM 67.3 °F - 55.8 °F 66% 30.33 in 10.0 mi South 6.9 mph - N/A   Clear
1:35 AM 67.1 °F - 56.3 °F 68% 30.32 in 10.0 mi South 8.1 mph - N/A   Clear
1:55 AM 66.2 °F - 55.9 °F 69% 30.32 in 10.0 mi SSE 4.6 mph - N/A   Clear
2:15 AM 66.2 °F - 56.5 °F 71% 30.31 in 10.0 mi SSE 8.1 mph - N/A   Clear
2:35 AM 65.7 °F - 56.5 °F 72% 30.31 in 10.0 mi SSE 6.9 mph - N/A   Clear
2:55 AM 64.4 °F - 56.1 °F 74% 30.31 in 10.0 mi Calm Calm - N/A   Clear
3:15 AM 65.5 °F - 56.5 °F 73% 30.31 in 10.0 mi Calm Calm - N/A   Clear
3:35 AM 64.0 °F - 55.8 °F 74% 30.31 in 10.0 mi Calm Calm - N/A   Scattered Clouds
3:55 AM 64.4 °F - 56.3 °F 75% 30.31 in 10.0 mi Calm Calm - N/A   Scattered Clouds
4:15 AM 63.5 °F - 55.4 °F 75% 30.31 in 10.0 mi Calm Calm - N/A   Clear
4:35 AM 63.0 °F - 55.9 °F 78% 30.31 in 10.0 mi Calm Calm - N/A   Clear
4:55 AM 61.7 °F - 55.6 °F 80% 30.30 in 10.0 mi Calm Calm - N/A   Clear
5:15 AM 60.1 °F - 52.5 °F 76% 30.30 in 10.0 mi Calm Calm - N/A   Clear
5:35 AM 59.2 °F - 52.2 °F 78% 30.31 in 10.0 mi NW 3.5 mph - N/A   Clear
5:50 AM 59.0 °F - 53.6 °F 82% 30.31 in 10.0 mi West 3.5 mph - N/A   Clear
6:50 AM 59.0 °F - 53.6 °F 82% 30.31 in 10.0 mi Calm Calm - N/A   Scattered Clouds
7:50 AM 64.4 °F - 57.2 °F 77% 30.33 in 10.0 mi Calm Calm - N/A   Partly Cloudy
8:50 AM 69.8 °F - 59.0 °F 68% 30.33 in 10.0 mi Calm Calm - N/A   Partly Cloudy
9:50 AM 71.6 °F - 59.0 °F 64% 30.33 in 10.0 mi Calm Calm - N/A   Partly Cloudy
10:50 AM 75.2 °F - 59.0 °F 57% 30.32 in 10.0 mi Variable 5.8 mph - N/A   Partly Cloudy
11:50 AM 78.8 °F - 57.2 °F 47% 30.13 in 10.0 mi Variable 5.8 mph - N/A   Partly Cloudy
1:50 PM 86.0 °F 84.2 °F 53.6 °F 33% 30.26 in 10.0 mi Variable 5.8 mph - N/A   Partly Cloudy
2:50 PM 87.8 °F - 51.8 °F 29% 30.23 in 10.0 mi SE 6.9 mph 10.4 mph N/A   Scattered Clouds
3:50 PM 87.8 °F - 51.8 °F 29% 30.20 in 10.0 mi WSW 5.8 mph - N/A   Scattered Clouds
4:50 PM 89.6 °F - 48.2 °F 24% 30.18 in 10.0 mi South 15.0 mph - N/A   Scattered Clouds
5:50 PM 89.6 °F - 46.4 °F 22% 30.18 in 10.0 mi SSE 11.5 mph 16.1 mph N/A   Scattered Clouds
6:50 PM 87.8 °F - 48.2 °F 25% 30.18 in 10.0 mi South 11.5 mph - N/A   Scattered Clouds
10:15 PM 74.3 °F - 46.6 °F 37% 30.20 in 10.0 mi South 9.2 mph - N/A   Clear
10:35 PM 72.5 °F - 46.6 °F 40% 30.20 in 10.0 mi South 8.1 mph - N/A   Clear
10:55 PM 70.9 °F - 46.4 °F 42% 30.21 in 10.0 mi SSW 6.9 mph - N/A   Clear
11:15 PM 68.0 °F - 45.5 °F 44% 30.21 in 10.0 mi SSW 6.9 mph - N/A   Clear
11:35 PM 68.0 °F - 45.5 °F 44% 30.21 in 10.0 mi SSW 6.9 mph - N/A   Clear
11:55 PM 69.4 °F - 48.6 °F 47% 30.21 in 10.0 mi SW 9.2 mph - N/A   Clear